Other Public Products
Issued by NWS Charleston, SC

Current Version | Previous Version | Graphics & Text | Print | Product List | Glossary On
Versions: 1 2 3 4 5 6 7 8 9 10 11 12 13 14 15 16 17 18 19 20 21 22 23 24 25 26 27 28 29 30 31 32 33 34 35 36 37 38 39 40 41 42 43 44 45 46 47 48 49 50
000
FPUS82 KCHS 040312
OPUCHS

TEST...KCHS/KSAV Gateway Observations...TEST
National Weather Service Charleston SC
1000 PM EST SAT DEC 03 2016

NOTE: "fair" indicates few or no clouds below 12,000 feet with no
significant weather and/or obstructions to visibility.

SCZ050-WAZ558-NCZ071-TXZ119-213-PAZ071-DCZ001-FLZ074-172-MI076-
NYZ176-178-MAZ016-IL014-TNZ027-NJZ106-GAZ044-MD014-040400-
...Gateway Observations for Charleston International...

CITY           SKY/WX    TMP DP  RH WIND       PRES   REMARKS
Chas Airport   CLOUDY    51  38  60 NE5       30.28R
Seattle        LGT RAIN  46  43  89 S15       30.14F
Charlotte      CLOUDY    48  30  49 E5        30.27S
Dallas DFW     DRIZZLE   48  46  93 NE8       30.00R FOG
Dallas Love    DRIZZLE   49  47  93 N7        30.01R FOG
Philladelphia  CLOUDY    47  30  51 W14       30.19R
Wash National  MOCLDY    43  29  57 W13       30.28R
Baltimore      MOCLDY    41  30  65 W13       30.24R
Miami          MOCLDY    75  65  70 NE9       30.09R
Detroit        CLOUDY    36  30  79 S3        30.29S
Newark         CLOUDY    44  25  47 NW25G32   30.14R
Laguardia      MOCLDY    45  30  55 NW17      30.13R
J F K          CLOUDY    44  26  49 NW18      30.14R
Boston Logan   PTCLDY    37  24  59 NW13      30.04S WCI  29
Ft. Lauderdale CLOUDY    75  63  66 E13       30.08R
Chicago O`Hare CLOUDY    31  25  78 S3        30.29F
Chicago Midway CLOUDY    33  24  69 S6        30.30F WCI  28
Houston Bush   CLOUDY    53  51  93 NE12      29.87F
Houston Hobby  CLOUDY    54  52  93 N14       29.88S
Nashville      LGT RAIN  41  36  82 NE5       30.27F
Atlanta        LGT RAIN  47  44  90 E8        30.18F

$$

GAZ044-118-TXZ119-213-NCZ071-DCZ001-MDZ014-506-PAZ021-071-NJZ106-
NYZ176-178-MAZ106-OHZ011-021-055-MIZ076-KYZ091-ILZ014-INZ047-
MNZ060-040400-
...Gateway Observations for Savannah International...

CITY           SKY/WX    TMP DP  RH WIND       PRES   REMARKS
Savannah Arpt  CLOUDY    54  42  64 NE7       30.26S
Atlanta        LGT RAIN  47  44  90 E8        30.18F
Charlotte      CLOUDY    48  30  49 E5        30.27S
Dallas DFW     DRIZZLE   48  46  93 NE8       30.00R FOG
Houston Bush   CLOUDY    53  51  93 NE12      29.87F
Wash National  MOCLDY    43  29  57 W13       30.28R
Wash Dulles    MOCLDY    40  28  62 W10       30.28R WCI  33
Baltimore      MOCLDY    41  30  65 W13       30.24R
Philadelphia   CLOUDY    47  30  51 W14       30.19R
Newark         CLOUDY    44  25  47 NW25G32   30.14R
Laguardia      MOCLDY    45  30  55 NW17      30.13R
J F K          CLOUDY    44  26  49 NW18      30.14R
Boston         PTCLDY    37  24  59 NW13      30.04S WCI  29
Pittsburg      CLOUDY    37  28  70 W5        30.28S WCI  33
Akron          CLOUDY    36  25  64 W3        30.29R
Cleveland      CLOUDY    38  26  62 SW7       30.32R WCI  33
Cincinnati     CLOUDY    36  29  75 CALM      30.29S
Columbus       CLOUDY    36  31  79 CALM      30.30F
Detroit        CLOUDY    36  30  79 S3        30.29S
Chicago O`Hare CLOUDY    31  25  78 S3        30.29F
Minneapolis    CLOUDY    32  24  72 SE7       30.15F WCI  26
Indianapolis   CLOUDY    33  27  78 NE3       30.29S

$$




USA.gov is the U.S. government's official web portal to all federal, state and local government web resources and services.